Orbital Elements at Epoch 2459000.5 (2020-May-31.0) TDB
Reference: JPL 22 (heliocentric ecliptic J2000)
Element | Value | Uncertainty (1-sigma) | Units |
e | .1751303368358779 | 4.3534e-08 | |
a | 2.414686762639805 | 8.3694e-09 | au |
q | 1.99180185654556 | 1.057e-07 | au |
i | 1.765797867913874 | 4.8886e-06 | deg |
node | 338.6213069077783 | 0.00012116 | deg |
peri | 70.37742428221335 | 0.00012202 | deg |
M | 155.7049255393801 | 1.3652e-05 | deg |
tp | 2458407.725545912818 (2018-Oct-16.22554591) | 5.0786e-05 | TDB |
period | 1370.533415896427 3.75 | 7.1255e-06 1.951e-08 | d yr |
n | .2626714502721805 | 1.3656e-09 | deg/d |
Q | 2.837571668734049 | 9.8352e-09 | au |
|
| | Orbit Determination Parameters
Additional Information
|